Details for EasyJet at LIRN




Go Back


Latest METAR
Local Time

LIRN 180620Z 35004KT 220V020 CAVOK 24/18 Q1015 NOSIG
18/08/2018, 08:29:48

Description
Results
EasyJet Logo
Number of Pilots based at LIRN
0 Pilots Based here
Number of EasyJet Flights Departed from LIRN
2 Flights Departed
Number of EasyJet Flights Arrived at LIRN
2 Flights Arrived
Number of EasyJet Schedules Departing from LIRN
68 Schedules
Number of EasyJet Schedules Arriving at LIRN
68 Schedules
Number of EasyJet Schedules Departing from LIRN availible today
29 Schedules Today
Number of EasyJet Schedules Arriving at LIRN availible today
29 Schedules Today
Average Landing Rate at LIRN
-162 fpm
EasyJet Average Landing Rate at LIRN
-202 fpm
Total Fuel Purchased at LIRN by EasyJet
6,475.49 kgs / 14,275.87 lbs

Pilots Based at LIRN


Pilot ID
Pilot Name
Pilot Rank
No. of Flights
No. of Flying Hours
There are no pilots assigned to this hub!   Will you be the first?
Content